Location: Coedana
(53.3000°N, 4.3667°W)
Time: 21:49:32
(UTC+00:00)

Daily predictions for brighter satellites

Satellite Brightness Start Highest point End
(mag) Time Altitude Azimuth Time Altitude Azimuth Time Altitude Azimuth
FENGYUN 3A 3.8 16:31:45 10° SSE 16:37:11 90° W 16:42:39 10° NNW
Cosmos 1869 Rocket 3.9 16:34:38 10° NNW 16:39:03 73° W 16:43:29 10° S
Cosmos 292 Rocket 4.4 16:35:11 10° NNW 16:39:41 35° NE 16:44:07 10° ESE
USA 215 4.0 16:34:35 10° ENE 16:40:45 42° SE 16:46:52 10° SSW
Cosmos 1666 4.0 16:40:08 10° NNE 16:42:50 18° ENE 16:45:31 10° ESE
Cosmos 1536 3.7 16:41:32 10° N 16:45:04 28° ENE 16:48:33 10° SE
Cosmos 921 Rocket 4.2 16:41:50 10° N 16:45:06 21° NE 16:48:24 10° E
Cosmos 1606 4.0 16:44:07 10° SW 16:47:43 40° WNW 16:51:22 10° N
Cosmos 2333 4.3 16:43:30 10° SSW 16:49:14 77° ESE 16:55:02 10° NE
CZ-4B R/B 3.3 16:44:22 10° SSE 16:49:43 86° WSW 16:55:13 10° NNW
Cosmos 2322 3.8 16:48:42 10° SSW 16:54:26 88° WNW 17:00:11 10° NNE
SJ-7 4.4 16:50:21 10° SSE 16:54:29 68° ENE 16:58:36 10° N
Cosmos 2278 Rocket 2.2 16:49:37 10° NNW 16:55:20 89° ENE 17:01:00 10° SSE
BREEZE-M R/B 4.0 16:49:04 10° WSW 16:56:14 56° S 16:59:49 10° E
NOSS 2-2 (D) 4.3 16:52:58 10° W 16:56:39 41° NNW 17:01:11 10° NE
Lacrosse 5 rocket 2.2 16:53:15 10° SSW 16:57:14 38° SE 17:00:53 11° ENE
Cosmos 2251 Rocket 4.2 16:54:37 10° S 16:59:27 37° ESE 17:04:16 10° NE
Cosmos 2360 Rocket 2.8 16:55:22 10° SW 17:00:57 56° NW 17:06:34 10° NNE
SL-4 R/B 2.4 16:59:53 10° WSW 17:03:28 50° SSE 17:07:13 11° E
Cosmos 2369 Rocket 3.3 17:02:29 10° NNW 17:06:56 23° NNE 17:11:13 11° E
CZ-4B R/B 2.1 17:03:41 10° N 17:07:10 58° WNW 17:10:35 10° SSW
Cosmos 1980 Rocket 4.1 17:04:35 10° WNW 17:08:30 18° NNW 17:12:25 10° NNE
Aureole 1 Rocket 4.4 17:07:34 10° ESE 17:08:36 11° E 17:08:48 11° E
Envisat 3.5 17:04:10 10° SE 17:08:47 36° ENE 17:13:25 10° N
NOSS 3-1 (C) 4.3 17:02:51 10° NW 17:09:13 42° NNE 17:16:31 10° E
Cosmos 2344 4.4 17:02:35 10° WNW 17:10:37 49° NNE 17:21:12 10° E
Cosmos 1743 4.1 17:08:44 10° NNE 17:11:27 18° ENE 17:14:10 10° ESE
Cosmos 1346 Rocket 4.5 17:07:47 10° NNW 17:11:29 38° W 17:15:12 10° SSW
Cosmos 1862 Rocket 3.9 17:07:59 10° SSE 17:12:07 43° E 17:16:19 10° NNE
Cosmos 1689 Rocket 2.2 17:09:06 10° NNE 17:12:10 82° WNW 17:15:11 10° SSW
STARLINK-67 2.5 17:10:39 10° W 17:13:25 81° S 17:15:28 16° E
Meteor 2-6 Rocket 4.1 17:08:02 10° S 17:13:25 78° E 17:18:54 10° NNE
CZ-4 R/B 2.6 17:11:36 10° ESE 17:14:24 19° ENE 17:17:10 10° NNE
Cosmos 1782 3.7 17:10:48 10° SSW 17:14:41 50° WNW 17:18:35 10° N
Lacrosse 4 Rocket 3.5 17:13:48 10° N 17:15:15 12° N 17:16:43 10° NNE
SL-16 R/B 3.7 17:11:56 10° SE 17:15:30 17° E 17:17:46 14° ENE
Cosmos 1992 Rocket 4.0 17:10:17 10° NNW 17:15:33 87° WSW 17:20:48 10° SSE
USA 267 3.8 17:11:15 10° SE 17:17:45 64° SW 17:24:15 10° WNW
USA 229 DEB 4.3 17:11:57 10° NW 17:18:36 43° NNE 17:24:57 13° E
USA 229 4.3 17:12:03 10° NW 17:18:42 43° NNE 17:25:01 13° E
Okean O Rocket 2.8 17:17:56 10° S 17:22:07 46° W 17:26:20 10° NNW
YAOGAN 6 3.6 17:19:13 10° ESE 17:22:09 24° ENE 17:25:07 10° N
NOSS 3-1 (A) 4.4 17:17:27 10° NW 17:23:43 40° NNE 17:29:38 15° ENE
BREEZE-M DEB (TANK) 4.0 17:17:05 10° W 17:23:58 40° SSW 17:26:44 10° SE
NOSS 3-4 (A) 3.6 17:18:05 10° WSW 17:24:10 73° NW 17:29:58 14° NE
NOSS 3-4 (C) 3.6 17:18:12 10° WSW 17:24:17 73° NW 17:30:04 14° NE
Cosmos 2237 Rocket 2.6 17:19:19 10° S 17:24:42 45° ESE 17:29:20 14° NE
Cosmos 1315 Rocket 3.7 17:21:17 10° SSW 17:25:13 51° WNW 17:29:13 10° N
Cosmos 2333 Rocket 2.3 17:19:41 10° SSW 17:25:27 85° WNW 17:31:15 10° NNE
STARLINK-46 2.9 17:24:39 10° WSW 17:27:15 50° SSE 17:28:37 23° E
Cosmos 1812 2.7 17:23:31 10° S 17:27:19 62° E 17:31:11 10° NNE
Cosmos 1707 Rocket 4.0 17:23:02 10° SSW 17:27:30 68° WNW 17:31:59 10° N
IRS-1C Rocket 4.1 17:22:47 10° SSE 17:28:05 90° WSW 17:33:24 10° NNW
PSLV R/B 3.9 17:24:20 10° NNE 17:28:29 63° ESE 17:32:34 10° S
Cosmos 2322 Rocket 3.8 17:23:59 10° W 17:28:45 27° NW 17:33:34 10° NNE
CORIOLIS 4.1 17:23:23 10° SSE 17:28:48 74° ENE 17:34:16 10° NNW
Cosmos 2242 Rocket 4.0 17:24:50 10° SSE 17:29:09 43° E 17:33:30 10° NNE
Cosmos 1092 Rocket 4.4 17:23:27 10° SSE 17:29:17 42° E 17:35:06 10° NNE
Cosmos 1500 3.6 17:30:45 10° NNW 17:34:30 63° W 17:38:12 10° S
Cosmos 1867 3.7 17:29:51 10° NW 17:35:15 56° NE 17:40:37 10° ESE
Cosmos 2219 Rocket 2.3 17:30:05 10° SW 17:35:42 75° WNW 17:41:08 11° NNE
Cosmos 1975 4.0 17:33:37 10° NNE 17:36:24 21° ENE 17:36:24 21° ENE
SL-16 R/B 3.9 17:33:29 10° W 17:38:00 24° NNW 17:42:32 10° NNE
BREEZE-M DEB (TANK) 4.0 17:33:57 10° WSW 17:38:49 31° S 17:41:22 11° SE
Meteor 1-10 Rocket 4.4 17:34:46 10° SSW 17:40:20 78° WNW 17:46:01 10° NNE
Cosmos 1943 Rocket 2.8 17:36:18 10° NNW 17:41:31 36° NE 17:45:18 17° E
Okean-O 2.5 17:37:38 10° SSE 17:42:02 67° ENE 17:46:27 10° N
Cosmos 1908 Rocket 3.4 17:38:50 10° N 17:43:16 72° ENE 17:47:37 10° SSE
COSMO-SKYMED 1 3.4 17:47:53 26° ENE 17:48:54 28° E 17:52:41 10° SSE
YAOGAN 3 4.5 17:47:30 10° SSE 17:51:52 80° ENE 17:56:15 10° NNW
Ariane Rocket 4.0 17:52:12 24° NE 17:52:12 24° NE 17:56:07 10° N
Cosmos 1980 3.6 17:50:18 10° SSW 17:55:56 75° ESE 18:00:05 19° NE
Cosmos 1441 Rocket 3.0 17:52:37 10° N 17:56:29 70° ENE 18:00:15 10° SSE
COSMOS 2455 4.2 17:51:21 10° W 17:56:29 28° NNW 18:00:33 15° NNE
CSL-04 Rocket 3.8 17:51:45 10° SE 17:56:45 45° ENE 18:01:48 10° N
Uosat 12 SS-18 rocket 4.5 17:52:13 10° NW 17:57:19 50° NE 17:59:27 28° E
SMAP 3.8 17:52:45 10° S 17:57:20 57° WSW 18:01:57 10° NNW
S3M 4.4 17:51:35 10° N 17:57:20 37° ENE 18:02:59 10° SE
Meteor 1-27 Rocket 3.8 17:51:42 10° SSW 17:57:29 88° WNW 18:03:26 10° NNE
Okean 1-7 3.4 17:54:26 10° SSE 17:58:32 41° E 18:00:20 27° NE
YAOGAN 1 2.9 17:54:51 10° SE 17:58:54 41° ENE 18:02:59 10° N
H-2A R/B 3.5 17:55:28 10° S 17:59:04 52° W 18:02:42 10° NNW
SeaSat 1 3.6 17:59:05 24° NE 17:59:32 24° NE 18:03:27 10° NNW
Cosmos 2297 3.7 17:54:45 10° NNW 18:00:30 89° WSW 18:06:12 10° SSE
ATLAS 2AS CENTAUR R/B 3.6 17:54:35 10° WSW 18:02:26 53° NNW 18:07:59 20° NE
CZ-4 R/B 4.4 18:00:34 10° SSE 18:04:40 60° ENE 18:08:48 10° N
Exosat Rocket 3.5 18:00:23 10° SSW 18:05:29 83° WNW 18:09:16 19° NNE
Nadezhda 4 Rocket 4.1 17:59:12 10° SSW 18:05:32 81° W 18:11:53 10° N
RESURS DK-1 3.4 18:05:13 10° WSW 18:09:10 42° NW 18:11:40 20° NNE
Cosmos 1553 Rocket 4.1 18:03:44 10° N 18:09:59 55° ENE 18:16:16 10° SSE
Genesis I 4.4 18:09:39 10° NW 18:13:23 43° SW 18:17:02 10° SSE
CSL-04 Debris 4.1 18:09:07 10° SSE 18:14:28 62° ENE 18:19:50 10° N
NOAA 15 4.5 18:13:07 10° SSE 18:18:20 68° ENE 18:23:34 10° NNW
COSMOS 2428 3.6 18:13:01 10° WSW 18:18:27 45° NW 18:22:47 16° NNE
Cosmos 1666 3.6 18:15:05 10° NNW 18:18:43 48° W 18:22:19 10° S
STARLINK-29 4.4 18:16:45 10° SSW 18:19:41 30° SSE 18:19:41 30° SSE
Cosmos 921 Rocket 3.3 18:19:34 10° NNW 18:23:49 65° WSW 18:28:07 10° S
Cosmos 489 Rocket 4.4 18:17:35 10° NNW 18:23:59 75° ENE 18:30:22 10° SSE
USA 215 3.2 18:20:48 31° ENE 18:24:14 90° S 18:30:48 10° WSW
Meteor 1-18 Rocket 4.3 18:19:40 10° S 18:25:10 52° E 18:27:36 31° NE
STARLINK-60 4.0 18:23:58 10° SW 18:26:47 39° S 18:26:47 39° S
Cosmos 2026 Rocket 3.8 18:21:16 10° S 18:27:18 74° E 18:33:23 10° NNE
Meteor 2-9 Rocket 4.2 18:23:25 10° N 18:29:18 63° ENE 18:35:03 10° SSE
Cosmos 614 Rocket 3.9 18:27:39 10° S 18:32:38 57° ESE 18:33:24 51° ENE
Lacrosse 5 rocket 1.2 18:32:05 10° WSW 18:36:17 70° NNW 18:36:32 68° N
Cosmos 1174 4.3 18:31:44 10° SSW 18:35:57 48° SE 18:35:57 48° SE
SKYMED 2 3.4 18:36:33 60° NE 18:37:16 76° ESE 18:41:37 10° S
Cosmos 1782 Rocket 4.1 18:33:44 10° NNW 18:38:03 59° W 18:42:18 10° S
NOAA 11 4.1 18:32:48 10° SSE 18:38:14 72° ENE 18:43:43 10° NNW
NOSS 0 Rocket 4.3 18:32:25 10° SW 18:38:36 61° NW 18:42:27 24° NNE
Cosmos 1417 Rocket 4.3 18:35:19 10° N 18:41:30 81° E 18:47:38 10° SSE
Cosmos 2251 Rocket 4.5 18:36:36 10° SW 18:41:40 45° NW 18:45:10 19° N
SL-4 R/B 2.0 18:39:05 10° W 18:42:49 70° SSW 18:42:49 70° SSW
Okean 2 Rocket 2.9 18:39:33 10° N 18:44:03 78° ENE 18:44:32 68° SE
Sich 1 Rocket 3.9 18:40:01 10° NNW 18:44:25 67° W 18:48:46 10° S
Cosmos 2360 Rocket 4.2 18:42:09 10° WNW 18:46:15 20° NNW 18:49:18 13° N
Okean 1 3.7 18:42:26 10° S 18:45:29 51° S 18:45:29 51° S
Cosmos 1743 3.4 18:43:47 10° NNW 18:47:35 54° W 18:51:22 10° S
Envisat 4.2 18:42:58 10° SSW 18:47:46 42° W 18:52:37 10° NNW
CZ-4 R/B 1.9 18:45:18 10° S 18:49:07 55° WSW 18:52:55 10° NNW
Cosmos 2369 Rocket 2.0 18:46:16 10° NNW 18:51:55 75° ENE 18:53:04 57° ESE
Cosmos 1140 Rocket 3.7 18:47:14 10° S 18:51:25 50° SE 18:51:25 50° SE
Aureole 1 Rocket 3.7 18:49:23 10° SW 18:51:28 37° WSW 18:51:28 37° WSW
Cosmos 1703 Rocket 4.2 18:48:46 10° SSW 18:53:10 55° WNW 18:55:35 25° N
Cosmos 1980 Rocket 4.3 18:52:18 10° NNW 18:54:57 13° N 18:55:27 13° N
Lacrosse 4 Rocket 3.6 18:51:56 10° NNW 18:53:03 16° N 18:53:03 16° N
YAOGAN 6 4.2 18:52:14 10° SSW 18:55:32 35° W 18:58:52 10° NNW
Cosmos 407 Rocket 3.3 18:53:05 10° SSW 18:58:18 85° ESE 18:58:49 73° NE
SL-16 R/B 2.1 18:53:04 10° SSW 18:58:46 82° ESE 18:59:41 64° NE
H-2A R/B 4.2 19:03:13 13° N 19:03:13 13° N 19:03:44 10° N
NOSS 3-1 (C) 3.9 18:53:53 10° NW 19:01:04 80° NE 19:03:58 44° ESE
Cosmos 1655 Rocket 3.8 18:59:50 10° S 19:06:07 72° E 19:07:36 53° NNE
Cosmos 1656 Rocket 4.3 19:03:05 10° NNW 19:06:54 40° N 19:06:54 40° N
Cosmos 2237 Rocket 3.1 19:03:23 10° WSW 19:08:50 45° NW 19:11:10 30° N
USA 229 DEB 3.7 19:03:11 10° NW 19:10:22 87° NE 19:12:26 52° SE
USA 229 3.7 19:03:18 10° NW 19:10:28 87° NE 19:12:30 53° SE
Cosmos 2333 Rocket 3.9 19:05:46 10° W 19:10:35 26° NW 19:13:15 19° N
Cosmos 1975 4.2 19:09:39 10° NNW 19:19:27 - S 19:12:20 35° NW
Cosmos 2322 Rocket 4.4 19:12:01 10° NW 19:14:53 14° N 19:16:02 13° N
NOSS 3-1 (A) 3.9 19:08:37 10° NW 19:15:45 73° NE 19:17:05 61° E
NOSS 3-4 (A) 4.5 19:10:14 10° W 19:16:04 37° NNW 19:17:24 34° NNE
NOSS 3-4 (C) 4.5 19:10:21 10° W 19:16:10 37° NNW 19:17:30 34° NNE
USA 116 4.5 19:15:42 69° NNW 19:16:16 77° WNW 19:21:24 10° SSW
Meteor 1-12 Rocket 4.2 19:12:13 10° NNW 19:18:09 84° W 19:19:52 48° S
Meteor 1-19 Rocket 4.1 19:14:19 10° SSW 19:19:24 77° SSW 19:19:24 77° SSW
Cosmos 2219 Rocket 4.0 19:16:09 10° W 19:20:38 24° NNW 19:22:51 19° N
SL-16 R/B 4.4 19:21:38 10° NW 19:24:19 13° N 19:24:54 13° N
COSMO-SKYMED 1 3.7 19:25:06 41° WNW 19:25:13 41° WNW 19:29:17 10° SW
Cosmos 1943 Rocket 2.6 19:20:03 10° NW 19:25:37 59° WSW 19:26:54 47° SSW
Cosmos 2344 4.2 19:17:18 10° NW 19:26:26 87° NE 19:31:31 41° SE
Ariane Rocket 3.9 19:32:24 42° NNW 19:32:24 42° NNW 19:35:46 10° NNW
YAOGAN 1 4.5 19:31:24 10° SSW 19:35:09 28° W 19:38:55 10° NW
SeaSat 1 3.8 19:38:53 32° NNW 19:38:53 32° NNW 19:41:30 10° NNW
ATLAS 2AS CENTAUR R/B 3.8 19:47:37 10° WNW 19:55:03 39° N 19:55:25 39° N
USA 215 3.6 20:08:09 58° NW 20:08:09 58° NW 20:13:37 10° W
Cosmos 2369 Rocket 4.2 20:31:01 10° NW 20:34:55 24° W 20:34:55 24° W
SL-16 R/B 4.2 20:38:40 10° W 20:41:35 23° WNW 20:41:35 23° WNW
